When you browse on this site, cookies collect data to enhance your experience and personalize the content and advertising you see.
Visit our Privacy Policy to learn more. By continuing to use the site, you agree to this use of cookies and data.
  • In Austria
  • List of Countries
  • For 7 days
  • Water Temperature
  • Weather Map
  • News
  • Weather Widgets
  • user-avatar
    Login

    Hourly Weather Córdoba

    Today, 12 December, Thursday

    Time Temperature Precipitation Wind Pressure Humidity
    00:00 +26°C° 0.1 mm 4 mps 719 mmHg 53%
    01:00 +26°C° 0.1 mm 4 mps 720 mmHg 55%
    02:00 +24°C° 0 mm 2 mps 720 mmHg 71%
    03:00 +22°C° 0 mm 4 mps 720 mmHg 57%
    04:00 +22°C° 0 mm 5 mps 721 mmHg 43%
    05:00 +22°C° 0 mm 7 mps 721 mmHg 30%
    06:00 +22°C° 0 mm 7 mps 722 mmHg 26%
    07:00 +22°C° 0 mm 7 mps 722 mmHg 21%
    08:00 +22°C° 0 mm 7 mps 723 mmHg 19%
    09:00 +24°C° 0 mm 7 mps 724 mmHg 16%
    10:00 +26°C° 0 mm 6 mps 724 mmHg 13%
    11:00 +28°C° 0 mm 6 mps 724 mmHg 10%
    12:00 +29°C° 0 mm 6 mps 724 mmHg 10%
    13:00 +30°C° 0 mm 6 mps 724 mmHg 10%
    14:00 +32°C° 0 mm 5 mps 723 mmHg 10%
    15:00 +30°C° 0 mm 5 mps 723 mmHg 10%
    16:00 +30°C° 0 mm 4 mps 722 mmHg 10%
    17:00 +30°C° 0 mm 3 mps 722 mmHg 11%
    18:00 +28°C° 0 mm 3 mps 722 mmHg 12%
    19:00 +26°C° 0 mm 2 mps 723 mmHg 13%
    20:00 +24°C° 0 mm 2 mps 723 mmHg 14%
    21:00 +23°C° 0 mm 1 mps 723 mmHg 15%
    22:00 +22°C° 0 mm 1 mps 724 mmHg 16%
    23:00 +21°C° 0 mm 1 mps 724 mmHg 17%

    Tomorrow, 13 December, Friday

    Time Temperature Precipitation Wind Pressure Humidity
    00:00 +21°C° 0 mm 1 mps 723 mmHg 18%
    01:00 +20°C° 0 mm 1 mps 723 mmHg 18%
    02:00 +20°C° 0 mm 1 mps 723 mmHg 19%
    03:00 +19°C° 0 mm 1 mps 723 mmHg 19%
    04:00 +19°C° 0 mm 1 mps 722 mmHg 20%
    05:00 +18°C° 0 mm 1 mps 722 mmHg 20%
    06:00 +20°C° 0 mm 2 mps 723 mmHg 18%
    07:00 +22°C° 0 mm 3 mps 723 mmHg 16%
    08:00 +25°C° 0 mm 4 mps 724 mmHg 14%
    09:00 +27°C° 0 mm 5 mps 723 mmHg 14%
    10:00 +29°C° 0 mm 6 mps 723 mmHg 13%
    11:00 +32°C° 0 mm 7 mps 723 mmHg 12%
    12:00 +33°C° 0 mm 7 mps 722 mmHg 14%
    13:00 +33°C° 0 mm 7 mps 721 mmHg 16%
    14:00 +34°C° 0 mm 6 mps 721 mmHg 18%
    15:00 +34°C° 0 mm 6 mps 720 mmHg 19%
    16:00 +33°C° 0 mm 6 mps 719 mmHg 20%
    17:00 +33°C° 0 mm 6 mps 719 mmHg 21%
    18:00 +30°C° 0 mm 5 mps 719 mmHg 27%
    19:00 +27°C° 0 mm 4 mps 720 mmHg 33%
    20:00 +25°C° 0 mm 3 mps 720 mmHg 40%
    21:00 +24°C° 0 mm 3 mps 720 mmHg 40%
    22:00 +24°C° 0 mm 2 mps 720 mmHg 41%
    23:00 +23°C° 0 mm 2 mps 721 mmHg 42%

    Day after tomorrow, 14 December, Saturday

    Time Temperature Precipitation Wind Pressure Humidity
    00:00 +23°C° 0 mm 2 mps 720 mmHg 42%
    01:00 +23°C° 0 mm 2 mps 720 mmHg 42%
    02:00 +23°C° 0 mm 2 mps 720 mmHg 42%
    03:00 +23°C° 0 mm 2 mps 720 mmHg 43%
    04:00 +22°C° 0 mm 3 mps 720 mmHg 45%
    05:00 +22°C° 0 mm 3 mps 719 mmHg 46%
    06:00 +25°C° 0 mm 3 mps 720 mmHg 45%
    07:00 +26°C° 0 mm 4 mps 720 mmHg 44%
    08:00 +27°C° 0 mm 4 mps 721 mmHg 43%
    09:00 +27°C° 0.1 mm 4 mps 720 mmHg 47%
    10:00 +27°C° 0.1 mm 4 mps 720 mmHg 50%
    11:00 +28°C° 0.1 mm 4 mps 720 mmHg 53%
    12:00 +29°C° 0.3 mm 4 mps 719 mmHg 52%
    13:00 +30°C° 0.3 mm 4 mps 719 mmHg 51%
    14:00 +32°C° 0.3 mm 4 mps 719 mmHg 50%
    15:00 +32°C° 0.1 mm 4 mps 718 mmHg 50%
    16:00 +32°C° 0.1 mm 4 mps 717 mmHg 51%
    17:00 +32°C° 0.1 mm 4 mps 717 mmHg 52%
    18:00 +29°C° 0 mm 3 mps 717 mmHg 60%
    19:00 +27°C° 0 mm 3 mps 717 mmHg 68%
    20:00 +25°C° 0 mm 3 mps 718 mmHg 76%
    21:00 +25°C° 1.5 mm 3 mps 718 mmHg 80%
    22:00 +23°C° 1.5 mm 4 mps 719 mmHg 83%
    23:00 +22°C° 1.5 mm 4 mps 719 mmHg 86%

    15 December, Sunday

    Time Temperature Precipitation Wind Pressure Humidity
    00:00 +22°C° 1.3 mm 4 mps 719 mmHg 84%
    01:00 +21°C° 1.3 mm 3 mps 719 mmHg 83%
    02:00 +21°C° 1.3 mm 2 mps 719 mmHg 81%
    03:00 +20°C° 0.1 mm 3 mps 720 mmHg 81%
    04:00 +20°C° 0.1 mm 4 mps 720 mmHg 81%
    05:00 +20°C° 0.1 mm 4 mps 720 mmHg 81%
    06:00 +22°C° 0 mm 5 mps 721 mmHg 71%
    07:00 +23°C° 0 mm 6 mps 721 mmHg 61%
    08:00 +26°C° 0 mm 6 mps 722 mmHg 51%
    09:00 +28°C° 0 mm 6 mps 722 mmHg 42%
    10:00 +30°C° 0 mm 6 mps 722 mmHg 33%
    11:00 +33°C° 0 mm 6 mps 722 mmHg 25%
    12:00 +34°C° 0 mm 5 mps 721 mmHg 23%
    13:00 +34°C° 0 mm 5 mps 721 mmHg 21%
    14:00 +35°C° 0 mm 5 mps 720 mmHg 19%
    15:00 +35°C° 0 mm 4 mps 720 mmHg 19%
    16:00 +35°C° 0 mm 4 mps 719 mmHg 18%
    17:00 +35°C° 0 mm 4 mps 719 mmHg 18%
    18:00 +33°C° 0 mm 3 mps 719 mmHg 21%
    19:00 +29°C° 0 mm 2 mps 719 mmHg 23%
    20:00 +27°C° 0 mm 2 mps 720 mmHg 26%
    21:00 +26°C° 0 mm 2 mps 720 mmHg 27%
    22:00 +25°C° 0 mm 2 mps 720 mmHg 28%
    23:00 +24°C° 0 mm 3 mps 720 mmHg 29%

    16 December, Monday

    Time Temperature Precipitation Wind Pressure Humidity
    00:00 +24°C° 0 mm 2 mps 720 mmHg 29%
    01:00 +24°C° 0 mm 2 mps 720 mmHg 28%
    02:00 +23°C° 0 mm 2 mps 720 mmHg 27%
    03:00 +23°C° 0 mm 2 mps 720 mmHg 26%
    04:00 +23°C° 0 mm 2 mps 720 mmHg 26%
    05:00 +23°C° 0 mm 1 mps 720 mmHg 25%
    06:00 +24°C° 0 mm 1 mps 721 mmHg 23%
    07:00 +26°C° 0 mm 2 mps 721 mmHg 22%
    08:00 +27°C° 0 mm 2 mps 722 mmHg 21%
    09:00 +27°C° 0 mm 3 mps 722 mmHg 24%
    10:00 +26°C° 0 mm 5 mps 722 mmHg 28%
    11:00 +26°C° 0 mm 6 mps 722 mmHg 31%
    12:00 +24°C° 0 mm 6 mps 722 mmHg 36%
    13:00 +23°C° 0 mm 6 mps 722 mmHg 40%
    14:00 +23°C° 0 mm 7 mps 722 mmHg 45%
    15:00 +23°C° 0 mm 6 mps 721 mmHg 45%
    16:00 +23°C° 0 mm 5 mps 721 mmHg 45%
    17:00 +23°C° 0 mm 4 mps 721 mmHg 45%
    18:00 +22°C° 0 mm 3 mps 721 mmHg 49%
    19:00 +21°C° 0 mm 2 mps 721 mmHg 52%
    20:00 +21°C° 0 mm 1 mps 721 mmHg 56%
    21:00 +20°C° 0 mm 2 mps 721 mmHg 56%
    22:00 +20°C° 0 mm 2 mps 721 mmHg 55%
    23:00 +20°C° 0 mm 3 mps 721 mmHg 55%

    17 December, Tuesday

    Time Temperature Precipitation Wind Pressure Humidity
    00:00 +20°C° 0 mm 3 mps 721 mmHg 51%
    01:00 +20°C° 0 mm 3 mps 721 mmHg 48%
    02:00 +20°C° 0 mm 2 mps 720 mmHg 44%
    03:00 +20°C° 0 mm 2 mps 720 mmHg 42%
    04:00 +20°C° 0 mm 2 mps 720 mmHg 41%
    05:00 +20°C° 0 mm 2 mps 720 mmHg 39%
    06:00 +22°C° 0 mm 3 mps 721 mmHg 36%
    07:00 +26°C° 0 mm 3 mps 721 mmHg 33%
    08:00 +28°C° 0 mm 4 mps 721 mmHg 30%
    09:00 +30°C° 0 mm 4 mps 721 mmHg 28%
    10:00 +33°C° 0 mm 4 mps 721 mmHg 25%
    11:00 +35°C° 0 mm 4 mps 721 mmHg 23%
    12:00 +36°C° 0 mm 4 mps 720 mmHg 21%
    13:00 +36°C° 0 mm 4 mps 719 mmHg 19%
    14:00 +37°C° 0 mm 5 mps 719 mmHg 18%
    15:00 +36°C° 0 mm 5 mps 718 mmHg 19%
    16:00 +36°C° 0 mm 5 mps 717 mmHg 21%
    17:00 +35°C° 0 mm 5 mps 717 mmHg 23%
    18:00 +33°C° 0 mm 4 mps 717 mmHg 27%
    19:00 +30°C° 0 mm 4 mps 717 mmHg 31%
    20:00 +29°C° 0 mm 4 mps 718 mmHg 35%
    21:00 +28°C° 0 mm 4 mps 718 mmHg 40%
    22:00 +26°C° 0 mm 3 mps 719 mmHg 45%
    23:00 +25°C° 0 mm 3 mps 719 mmHg 49%
    Show more